Orbital Elements at Epoch 2459200.5 (2020-Dec-17.0) TDB
Reference: JPL 22 (heliocentric ecliptic J2000)
Element | Value | Uncertainty (1-sigma) | Units |
e | .0274542598061031 | 6.3224e-08 | |
a | 1.916884618937858 | 7.3485e-09 | au |
q | 1.864257970591215 | 1.2512e-07 | au |
i | 24.34577998411838 | 4.3691e-06 | deg |
node | 76.22342778849931 | 8.5101e-06 | deg |
peri | 145.890370245472 | 8.1672e-05 | deg |
M | 251.1004543377472 | 8.349e-05 | deg |
tp | 2459493.735099401882 (2021-Oct-06.23509940) | 0.00022522 | TDB |
period | 969.3762737273648 2.65 | 5.5742e-06 1.526e-08 | d yr |
n | .3713728195716592 | 2.1355e-09 | deg/d |
Q | 1.969511267284501 | 7.5502e-09 | au |
|
| | Orbit Determination Parameters
Additional Information
|